User: anonymous   Login
Location: Caribou
(46.8667°N, 68.0167°W)
Time: 11:59:46
(UTC-05:00)
Language:

SL-08 RB Rocket - Orbit

View from above orbital plane
View from above orbital plane
View from above satellite
View from above satellite

Ground track
Ground track

The orbit data is extracted from the following two-line orbital elements,

1 26387U 00033D   14330.23975972  .00000920  00000-0  16994-3 0  6717
2 26387 098.0888 036.0661 0027758 062.6335 334.2407 14.67534897770859
Epoch (UTC): 26 November 2014 05:45:15
Eccentricity: 0.0027758
inclination: 98.0888°
perigee height: 649 km
apogee height: 688 km
right ascension of ascending node: 36.0661°
argument of perigee: 62.6335°
revolutions per day: 14.67534897
mean anomaly at epoch: 334.2407°
orbit number at epoch: 77085

The dashed part of the orbit path shows where the satellite is in the earth's shadow,  

DLR